Simultaneous Nadir Overpasses (SNOs) Predictions

Prediction of SNOs between AQUA and METOP-A Satellite Orbit:

Table of predicted SNOs for the next 14.0 days since TLE Epoch: 7/5/2013
Index Date (AQUA) Time (AQUA) Lat,Lon (AQUA) SZA (AQUA ) Date (METOP-A) Time (METOP-A) Lat,Lon (METOP-A) SZA (METOP-A ) Distance(km) Time Diff (sec)
1 07/05/2013 21:42:03 73.84,-151.21 51.19 07/05/2013 21:41:03 73.83,-151.24 51.19 1.39 60
2 07/05/2013 22:31:30 -73.93, 16.23 128.71 07/05/2013 22:31:43 -73.93, 16.33 128.72 3.19 13
3 07/05/2013 23:21:06 74.35,-177.11 51.75 07/05/2013 23:22:14 74.36,-175.28 51.67 55.02 68
4 07/08/2013 17:16:18 73.85, -84.79 51.50 07/08/2013 17:15:27 73.86, -84.76 51.53 2.16 51
5 07/08/2013 18:05:45 -73.93, 82.66 128.40 07/08/2013 18:06:08 -73.92, 82.70 128.42 1.87 23
6 07/11/2013 12:50:33 73.87, -18.40 51.89 07/11/2013 12:49:52 73.84, -18.41 51.87 2.52 41
7 07/11/2013 13:39:59 -73.90, 149.18 128.08 07/11/2013 13:40:33 -73.91, 149.07 128.07 3.53 34
8 07/14/2013 08:24:46 73.85, 48.08 52.28 07/14/2013 08:24:15 73.87, 48.06 52.31 2.41 31
9 07/14/2013 09:14:13 -73.93,-144.45 127.63 07/14/2013 09:14:56 -73.94,-144.46 127.63 0.80 43
10 07/17/2013 03:09:21 -73.25, -51.84 127.92 07/17/2013 03:08:14 -73.18, -54.45 127.85 84.22 67
11 07/17/2013 03:59:01 73.90, 114.41 52.79 07/17/2013 03:58:39 73.89, 114.51 52.78 3.32 22
12 07/17/2013 04:48:27 -73.92, -78.00 127.18 07/17/2013 04:49:21 -73.91, -78.11 127.20 3.70 54




NCC Satellite Simultaneous Nadir Overpasses (SNOs) Prediction Service
